Miscellaneous Local Product
Issued by NWS North Platte, NE

Home | Current Version | Previous Version | Text Only | Print | Product List | Glossary On
Versions: 1 2 3 4 5 6 7 8 9 10 11 12 13 14 15 16 17 18 19 20 21 22 23 24 25 26 27 28 29 30 31 32 33 34 35 36 37 38 39 40 41 42 43 44 45 46 47 48 49 50
942
AXUS43 KLBF 190710
MISLBF


WESTERN AND NORTH CENTRAL NEBRASKA HOURLY WEATHER ROUNDUP
NATIONAL WEATHER SERVICE NORTH PLATTE NE
200 AM CDT THU OCT 19 2017

NOTE: "FAIR" INDICATES FEW OR NO CLOUDS BELOW 12,000 FEET WITH NO
SIGNIFICANT WEATHER AND/OR OBSTRUCTIONS TO VISIBILITY.

NOTE: STATIONS NOT REPORTING VARIABLES SUCH AS SKY/WEATHER OR
PRESSURE ARE PROVIDED BY RAWS AND APRS NETWORKS AND ARE NOT UNDER
NATIONAL WEATHER SERVICE QUALITY CONTROL.

...OBSERVATIONS IN AND NEAR THE EASTERN PANHANDLE OF NEBRASKA...

CITY           SKY/WX    TMP DP  RH WIND       PRES   REMARKS
PINE RIDGE     CLOUDY    56  33  42 S23G32    29.99F
GORDON         FAIR      46  32  57 CALM      30.03S
CHADRON        CLOUDY    59  29  31 SW16      29.99R
ALLIANCE       CLOUDY    43  32  65 S6        30.07S
SIDNEY         CLOUDY    41  31  67 S9        30.11S
CRESCENT LAKE    N/A     47  35  63 S8          N/A
$$

...OBSERVATIONS IN NORTHERN NEBRASKA AND FAR SOUTHERN SOUTH DAKOTA...

CITY           SKY/WX    TMP DP  RH WIND       PRES   REMARKS
WINNER         FAIR      57  34  41 S16       29.99F
VALENTINE      CLOUDY    47  35  63 SW10      30.03F
THEDFORD       CLOUDY    47  35  65 S7        30.07F
AINSWORTH      CLEAR     43  37  78 S8        30.04F
O`NEILL        CLOUDY    44  36  73 CALM      30.06S
ORD            CLOUDY    35  31  85 NW6       30.06S WCI  30
BROKEN BOW     CLOUDY    37  33  85 CALM      30.07F
VALENTINE NWR    N/A     47  34  60 S9          N/A
HALSEY           N/A     49  33  53 S6          N/A
BUTTE            N/A     46  34  63 S3          N/A
CHAMBERS         N/A     40  33  75 CALM        N/A
EWING            N/A     41  34  77 CALM        N/A
$$

...OBSERVATIONS IN SOUTHWEST NEBRASKA AND FAR NORTHEAST COLORADO...

CITY           SKY/WX    TMP DP  RH WIND       PRES   REMARKS
WRAY           FAIR      46  32  57 S6        30.12S
HOLYOKE        FAIR      41  34  75 SW5       30.12R
IMPERIAL       CLOUDY    44  33  65 S5        30.10S
OGALLALA       CLOUDY    40  32  75 CALM      30.10S
NORTH PLATTE   CLOUDY    39  34  82 CALM      30.09F
MCCOOK         CLOUDY    45  35  68 CALM      30.09S
LEXINGTON      CLOUDY    39  36  86 CALM      30.09F
STAPLETON        N/A     46  34  64 CALM        N/A
GOTHENBURG       N/A     44  37  76 CALM        N/A
CALLAWAY         N/A     36  34  93 S3          N/A
$$

...OBSERVATIONS IN CENTRAL LINCOLN COUNTY AREA...

CITY           SKY/WX    TMP DP  RH WIND       PRES   REMARKS
N.P. AIRPORT   CLOUDY    39  34  82 CALM      30.09F
N.P. DOWNTOWN    N/A     42  38  85 CALM        N/A
N.P. SOUTHEAST   N/A     41  37  84 CALM        N/A
N.P. HILLCREST   N/A     48  36  64 CALM        N/A
$$

...SOME OBSERVATIONS FROM AROUND THE REGION...

CITY           SKY/WX    TMP DP  RH WIND       PRES   REMARKS
DENVER         CLOUDY    49  25  39 S14       30.12F
LIMON          CLOUDY    30  26  85 CALM      30.17F
ASPEN          CLOUDY    36  15  42 CALM      30.27F
LARAMIE        CLOUDY    35  15  44 SW8       30.19F WCI  29
CASPER         CLOUDY    53  14  21 SW12      30.04S
CHEYENNE       CLOUDY    43  23  45 W7        30.15F
SCOTTSBLUFF    CLOUDY    43  31  62 E8        30.08F
GRAND ISLAND   CLOUDY    44  39  82 NW3       30.07F
OMAHA          CLEAR     47  42  83 NW3       30.04S
SIOUX FALLS    CLOUDY    39  36  89 CALM      30.06S
PIERRE         CLOUDY    47  29  49 SE9       29.95F
RAPID CITY     CLOUDY    51  30  44 S12       29.93F
BISMARCK       CLOUDY    38  25  59 NE8       29.90F WCI  32
KANSAS CITY    CLEAR     55  49  80 S3        30.07R
HILL CITY      CLEAR     42  37  82 CALM      30.08S
WICHITA        PTCLDY    53  49  86 S9        30.05F
DODGE CITY     CLEAR     51  44  77 CALM      30.06F
OKLAHOMA CITY  CLOUDY    54  45  71 S9        30.08R
DALLAS         CLOUDY    66  48  52 S10       30.09S
AMARILLO       CLOUDY    58  44  60 S13       30.08S
$$




USA.gov is the U.S. government's official web portal to all federal, state and local government web resources and services.